| time (UTC) | temp F | wind direction | speed knots | gust knots | rain 1hr in | rain 24hr in | rain mn in | humidity % | barometer mb |
| 20260507161535 | 69 | 227 | 0.0 | 0.9 | 0.03 | 1.21 | 0.72 | 98 | 1010.3 |
| 20260507160030 | 68 | 227 | 0.0 | 0.0 | 0.05 | 1.19 | 0.70 | 98 | 1010.7 |
| 20260507154527 | 68 | 227 | 0.0 | 0.0 | 0.25 | 1.18 | 0.69 | 98 | 1010.2 |
| 20260507153027 | 67 | 227 | 0.0 | 0.0 | 0.50 | 1.18 | 0.69 | 97 | 1010.1 |
| 20260507151522 | 67 | 227 | 0.0 | 3.5 | 0.51 | 1.18 | 0.69 | 97 | 1010.4 |
| 20260507150021 | 67 | 260 | 0.0 | 2.6 | 0.47 | 1.13 | 0.65 | 97 | 1010.8 |
| 20260507144521 | 67 | 274 | 0.9 | 3.5 | 0.22 | 0.89 | 0.40 | 97 | 1010.7 |
| 20260507143019 | 67 | 5 | 0.0 | 6.1 | 0.02 | 0.68 | 0.19 | 97 | 1009.6 |
| 20260507141518 | 67 | 287 | 0.9 | 3.5 | 0.01 | 0.67 | 0.18 | 97 | 1009.6 |
| 20260507140032 | 67 | 305 | 0.0 | 2.6 | 0.01 | 0.67 | 0.18 | 97 | 1009.6 |
| 20260507134516 | 67 | 55 | 1.7 | 9.6 | 0.01 | 0.67 | 0.18 | 97 | 1010.0 |
| 20260507133015 | 67 | 257 | 0.9 | 4.3 | 0.00 | 0.66 | 0.17 | 97 | 1010.0 |
| 20260507131522 | 67 | 294 | 0.0 | 4.3 | 0.00 | 0.66 | 0.17 | 97 | 1010.1 |
| 20260507130014 | 67 | 270 | 0.0 | 1.7 | 0.00 | 0.66 | 0.17 | 97 | 1010.6 |
| 20260507124514 | 67 | 82 | 0.0 | 1.7 | 0.00 | 0.66 | 0.17 | 97 | 1010.4 |
| 20260507123013 | 66 | 82 | 0.0 | 1.7 | 0.00 | 0.66 | 0.17 | 97 | 1009.7 |
| 20260507121510 | 66 | 82 | 0.0 | 0.9 | 0.00 | 0.66 | 0.17 | 97 | 1009.5 |
| 20260507120022 | 66 | 82 | 0.0 | 0.0 | 0.03 | 0.66 | 0.17 | 97 | 1009.6 |
| 20260507114508 | 66 | 82 | 0.0 | 0.9 | 0.06 | 0.66 | 0.17 | 97 | 1009.4 |
| 20260507113005 | 66 | 267 | 0.0 | 0.0 | 0.08 | 0.66 | 0.17 | 97 | 1009.6 |
| 20260507111602 | 66 | 267 | 0.0 | 2.6 | 0.11 | 0.66 | 0.17 | 97 | 1010.6 |
| 20260507110103 | 66 | 221 | 0.0 | 1.7 | 0.09 | 0.63 | 0.14 | 97 | 1011.9 |
| 20260507104611 | 66 | 221 | 0.0 | 1.7 | 0.07 | 0.60 | 0.11 | 97 | 1011.2 |
| 20260507103058 | 66 | 221 | 0.0 | 1.7 | 0.05 | 0.57 | 0.09 | 97 | 1011.5 |
| 20260507101557 | 66 | 252 | 0.0 | 1.7 | 0.02 | 0.55 | 0.06 | 97 | 1011.3 |
| 20260507100100 | 66 | 252 | 0.0 | 1.7 | 0.02 | 0.54 | 0.05 | 97 | 1011.3 |
| 20260507094606 | 66 | 257 | 0.0 | 1.7 | 0.02 | 0.53 | 0.04 | 97 | 1011.0 |
| 20260507093054 | 66 | 355 | 1.7 | 5.2 | 0.02 | 0.53 | 0.04 | 96 | 1011.4 |
| 20260507091554 | 66 | 138 | 0.9 | 4.3 | 0.02 | 0.53 | 0.04 | 96 | 1011.9 |
| 20260507090052 | 66 | 202 | 0.0 | 1.7 | 0.01 | 0.52 | 0.03 | 96 | 1011.7 |
| 20260507084559 | 66 | 202 | 0.0 | 0.9 | 0.01 | 0.51 | 0.02 | 96 | 1011.7 |
| 20260507083052 | 66 | 202 | 0.0 | 0.9 | 0.01 | 0.51 | 0.02 | 96 | 1011.8 |
| 20260507081551 | 66 | 202 | 0.0 | 0.9 | 0.01 | 0.51 | 0.02 | 96 | 1011.2 |
| 20260507080053 | 66 | 202 | 0.0 | 0.0 | 0.01 | 0.51 | 0.02 | 96 | 1011.3 |
| 20260507074551 | 66 | 202 | 0.0 | 0.0 | 0.00 | 0.50 | 0.01 | 96 | 1011.7 |
| 20260507073048 | 66 | 202 | 0.0 | 0.0 | 0.00 | 0.50 | 0.01 | 95 | 1011.6 |
| 20260507071548 | 66 | 202 | 0.0 | 0.9 | 0.00 | 0.50 | 0.01 | 95 | 1011.9 |
| 20260507064548 | 66 | 202 | 0.0 | 0.0 | 0.00 | 0.50 | 0.01 | 95 | 1011.7 |
| 20260507063052 | 66 | 202 | 0.0 | 0.0 | 0.00 | 0.50 | 0.01 | 95 | 1011.6 |
| 20260507061545 | 66 | 202 | 0.0 | 0.9 | 0.00 | 0.50 | 0.01 | 94 | 1011.9 |
| 20260507060049 | 66 | 202 | 0.0 | 0.9 | 0.00 | 0.50 | 0.01 | 94 | 1011.6 |
| 20260507054544 | 66 | 202 | 0.0 | 0.0 | 0.00 | 0.50 | 0.01 | 94 | 1011.7 |
| 20260507053040 | 67 | 202 | 0.0 | 0.0 | 0.00 | 0.50 | 0.01 | 94 | 1012.0 |
| 20260507051539 | 67 | 202 | 0.9 | 1.7 | 0.00 | 0.50 | 0.01 | 94 | 1012.8 |
| 20260507050059 | 67 | 202 | 0.0 | 0.0 | 0.01 | 0.50 | 0.01 | 94 | 1012.7 |
| 20260507044546 | 67 | 202 | 0.0 | 1.7 | 0.03 | 0.50 | 0.01 | 93 | 1013.2 |
| 20260507043033 | 67 | 202 | 0.0 | 0.0 | 0.07 | 0.50 | 0.01 | 93 | 1013.4 |
| 20260507041532 | 67 | 202 | 0.0 | 0.9 | 0.08 | 0.50 | 0.01 | 93 | 1013.5 |
| 20260507040030 | 67 | 202 | 0.0 | 0.9 | 0.14 | 0.49 | 0.00 | 93 | 1013.6 |
| 20260507034535 | 67 | 202 | 0.0 | 0.9 | 0.25 | 0.46 | 0.46 | 92 | 1014.3 |
| 20260507033037 | 67 | 202 | 0.0 | 2.6 | 0.33 | 0.43 | 0.43 | 91 | 1014.4 |
| 20260507031532 | 68 | 184 | 0.9 | 4.3 | 0.42 | 0.42 | 0.42 | 90 | 1014.4 |
| 20260507030035 | 69 | 32 | 0.9 | 6.1 | 0.35 | 0.35 | 0.35 | 87 | 1015.3 |
| 20260507024535 | 71 | 232 | 0.0 | 3.5 | 0.21 | 0.21 | 0.21 | 83 | 1014.7 |
| 20260507023026 | 74 | 185 | 1.7 | 4.3 | 0.08 | 0.08 | 0.08 | 79 | 1014.4 |
| 20260507021543 | 74 | 126 | 0.0 | 0.0 | 0.00 | 0.00 | 0.00 | 71 | 1012.1 |
| 20260507020027 | 75 | 126 | 0.0 | 0.0 | 0.00 | 0.00 | 0.00 | 70 | 1012.3 |
| 20260507014525 | 75 | 126 | 0.0 | 1.7 | 0.00 | 0.00 | 0.00 | 69 | 1012.0 |
| 20260507013030 | 75 | 126 | 0.0 | 1.7 | 0.00 | 0.00 | 0.00 | 69 | 1011.6 |
| 20260507011529 | 75 | 126 | 0.0 | 0.0 | 0.00 | 0.00 | 0.00 | 70 | 1011.7 |
| 20260507010032 | 75 | 126 | 0.0 | 0.0 | 0.00 | 0.00 | 0.00 | 70 | 1011.9 |
| 20260507004522 | 76 | 126 | 0.0 | 0.0 | 0.00 | 0.00 | 0.00 | 70 | 1012.1 |
| 20260507003019 | 76 | 126 | 0.0 | 0.0 | 0.00 | 0.00 | 0.00 | 69 | 1012.1 |
| 20260507001519 | 76 | 126 | 0.0 | 0.9 | 0.00 | 0.00 | 0.00 | 69 | 1012.1 |
| 20260507000018 | 77 | 295 | 0.0 | 0.9 | 0.00 | 0.00 | 0.00 | 68 | 1012.1 |
| 20260506234518 | 78 | 296 | 0.0 | 0.9 | 0.00 | 0.00 | 0.00 | 67 | 1012.1 |
| 20260506233018 | 79 | 296 | 0.0 | 0.9 | 0.00 | 0.00 | 0.00 | 64 | 1012.2 |
| 20260506231522 | 82 | 296 | 0.0 | 3.5 | 0.00 | 0.00 | 0.00 | 58 | 1012.1 |
| 20260506230017 | 83 | 293 | 0.0 | 3.5 | 0.00 | 0.00 | 0.00 | 54 | 1012.0 |
| 20260506224517 | 84 | 244 | 0.9 | 6.1 | 0.00 | 0.00 | 0.00 | 52 | 1012.1 |
| 20260506223017 | 84 | 107 | 0.0 | 5.2 | 0.00 | 0.00 | 0.00 | 52 | 1012.2 |
| 20260506221513 | 84 | 273 | 0.9 | 4.3 | 0.00 | 0.00 | 0.00 | 52 | 1012.4 |
| 20260506220022 | 86 | 259 | 1.7 | 6.1 | 0.00 | 0.00 | 0.00 | 48 | 1012.5 |
| 20260506214512 | 86 | 52 | 0.9 | 8.7 | 0.00 | 0.00 | 0.00 | 48 | 1012.4 |
| 20260506213011 | 86 | 157 | 1.7 | 8.7 | 0.00 | 0.00 | 0.00 | 49 | 1012.5 |
| 20260506211511 | 86 | 231 | 1.7 | 7.0 | 0.00 | 0.00 | 0.00 | 49 | 1012.4 |
| 20260506210008 | 86 | 250 | 1.7 | 6.1 | 0.00 | 0.00 | 0.00 | 52 | 1012.4 |
| 20260506204508 | 85 | 237 | 1.7 | 7.8 | 0.00 | 0.00 | 0.00 | 54 | 1012.4 |
| 20260506203019 | 86 | 42 | 1.7 | 7.8 | 0.00 | 0.00 | 0.00 | 53 | 1012.4 |
| 20260506201508 | 86 | 243 | 1.7 | 9.6 | 0.00 | 0.00 | 0.00 | 54 | 1012.9 |
| 20260506200001 | 85 | 227 | 3.5 | 8.7 | 0.00 | 0.00 | 0.00 | 55 | 1013.2 |
| 20260506194619 | 84 | 10 | 2.6 | 7.8 | 0.00 | 0.00 | 0.00 | 57 | 1013.5 |
| 20260506193057 | 83 | 179 | 1.7 | 5.2 | 0.00 | 0.00 | 0.00 | 57 | 1013.5 |
| 20260506191554 | 83 | 253 | 1.7 | 7.0 | 0.00 | 0.00 | 0.00 | 57 | 1013.6 |
| 20260506190053 | 82 | 244 | 2.6 | 5.2 | 0.00 | 0.00 | 0.00 | 59 | 1013.7 |
| 20260506184550 | 80 | 133 | 1.7 | 7.8 | 0.00 | 0.00 | 0.00 | 60 | 1014.4 |
| 20260506183100 | 79 | 169 | 0.9 | 3.5 | 0.00 | 0.00 | 0.00 | 64 | 1014.5 |
| 20260506181552 | 77 | 61 | 0.9 | 6.1 | 0.00 | 0.00 | 0.00 | 67 | 1014.6 |
| 20260506180043 | 77 | 40 | 1.7 | 4.3 | 0.00 | 0.00 | 0.00 | 68 | 1015.0 |
| 20260506174543 | 75 | 275 | 2.6 | 6.1 | 0.00 | 0.00 | 0.00 | 69 | 1015.2 |
| 20260506173051 | 76 | 217 | 0.9 | 7.0 | 0.00 | 0.00 | 0.00 | 69 | 1015.4 |
| 20260506171545 | 77 | 194 | 1.7 | 6.1 | 0.00 | 0.00 | 0.00 | 68 | 1015.8 |
| 20260506170046 | 74 | 246 | 1.7 | 4.3 | 0.00 | 0.00 | 0.00 | 72 | 1016.2 |
| 20260506164546 | 75 | 286 | 0.9 | 6.1 | 0.00 | 0.00 | 0.00 | 71 | 1016.4 |
| 20260506163036 | 74 | 263 | 2.6 | 6.1 | 0.00 | 0.00 | 0.00 | 72 | 1016.4 |